Location: ????????
(48.4751°N, 37.6926°E)
Time: 13:38:33
(UTC+00:00)

BREEZE-M DEB (TANK) - Pass Details

Date: 20 January 2021
Orbit: 325 x 13917 km, 49.6° (Epoch: 25 February)

Event Time Altitude Azimuth Distance (km) Brightness Sun altitude
Rises 15:10:40 0° 291° (WNW) 4,155 8.2 -10.1°
Reaches altitude 10° 15:14:43 10° 282° (WNW) 2,198 6.9 -10.7°
Maximum altitude 15:18:20 29° 220° (SW) 808 4.4 -11.3°
Drops below altitude 10° 15:20:30 10° 154° (SSE) 1,280 4.6 -11.6°
Enters shadow 15:22:03 - 141° (SE) 2,003 5.5 -11.9°
